DAL4643 KDEN-KABQ

Flight info

Callsign DAL4643
Flight time N/A
Altitude 31500
Route KDEN BAYLR6 HBU ABQ APPROACH RUNWAY 21 USING VFR PATTERN VIA L AUTO
Aircraft A21N/M-S/L

Departure

Time 2026-05-03 22:06
Airport Denver International Airport (KDEN)

Arrival

Time N/A
Airport Albuquerque International Sunport (KABQ)
Time Latitude Longitude Altitude Speed Heading
2026-05-03 21:53 39.85937 -104.67843 5385 ft 0 kts 185°
2026-05-03 21:56 39.85940 -104.67842 5385 ft 2 kts 185°
2026-05-03 21:56 39.85958 -104.67840 5382 ft 2 kts 185°
2026-05-03 21:56 39.85975 -104.67838 5383 ft 2 kts 184°
2026-05-03 21:57 39.85991 -104.67845 5382 ft 2 kts 125°
2026-05-03 21:57 39.85996 -104.67856 5382 ft 0 kts 91°
2026-05-03 21:57 39.85995 -104.67852 5382 ft 3 kts 91°
2026-05-03 21:57 39.86003 -104.67800 5383 ft 9 kts 78°
2026-05-03 21:58 39.86004 -104.67704 5382 ft 14 kts 91°
2026-05-03 21:58 39.86003 -104.67554 5379 ft 19 kts 91°
2026-05-03 21:58 39.86002 -104.67363 5383 ft 23 kts 90°
2026-05-03 21:58 39.86000 -104.67136 5381 ft 27 kts 91°
2026-05-03 21:59 39.86025 -104.66913 5383 ft 19 kts 44°
2026-05-03 21:59 39.86061 -104.66861 5384 ft 2 kts 85°
2026-05-03 21:59 39.86061 -104.66839 5384 ft 3 kts 90°
2026-05-03 21:59 39.86060 -104.66796 5385 ft 6 kts 92°
2026-05-03 22:00 39.86059 -104.66730 5383 ft 9 kts 90°
2026-05-03 22:00 39.86059 -104.66634 5389 ft 12 kts 90°
2026-05-03 22:00 39.86043 -104.66550 5388 ft 6 kts 126°
2026-05-03 22:00 39.86024 -104.66492 5393 ft 8 kts 105°
2026-05-03 22:01 39.86016 -104.66419 5394 ft 9 kts 90°
2026-05-03 22:01 39.86017 -104.66328 5396 ft 12 kts 90°
2026-05-03 22:01 39.86035 -104.66242 5399 ft 5 kts 35°
2026-05-03 22:01 39.86067 -104.66233 5394 ft 5 kts 359°
2026-05-03 22:02 39.86119 -104.66234 5393 ft 10 kts
2026-05-03 22:02 39.86212 -104.66230 5393 ft 17 kts 360°
2026-05-03 22:02 39.86354 -104.66228 5397 ft 22 kts 359°
2026-05-03 22:02 39.86490 -104.66208 5387 ft 11 kts 38°
2026-05-03 22:03 39.86500 -104.66189 5393 ft 3 kts 73°
2026-05-03 22:03 39.86500 -104.66145 5393 ft 8 kts 92°
2026-05-03 22:03 39.86498 -104.66035 5391 ft 16 kts 91°
2026-05-03 22:03 39.86497 -104.65853 5392 ft 24 kts 90°
2026-05-03 22:04 39.86495 -104.65593 5390 ft 33 kts 90°
2026-05-03 22:04 39.86493 -104.65298 5374 ft 34 kts 90°
2026-05-03 22:04 39.86492 -104.64962 5367 ft 39 kts 90°
2026-05-03 22:04 39.86489 -104.64588 5355 ft 43 kts 90°
2026-05-03 22:05 39.86486 -104.64300 5354 ft 21 kts 90°
2026-05-03 22:05 39.86464 -104.64146 5353 ft 12 kts 133°
2026-05-03 22:05 39.86433 -104.64132 5354 ft 4 kts 182°
2026-05-03 22:05 39.86186 -104.64136 5359 ft 80 kts 180°
2026-05-03 22:06 39.85317 -104.64151 5368 ft 167 kts 178°
2026-05-03 22:06 39.83998 -104.64177 5831 ft 200 kts 186°
2026-05-03 22:06 39.82552 -104.64202 6600 ft 216 kts 190°
2026-05-03 22:06 39.81080 -104.64846 7191 ft 236 kts 217°
2026-05-03 22:07 39.79675 -104.66164 7842 ft 263 kts 223°
2026-05-03 22:07 39.78261 -104.67845 8319 ft 279 kts 227°
2026-05-03 22:07 39.77030 -104.69531 8613 ft 239 kts 240°
2026-05-03 22:07 39.76865 -104.71354 8680 ft 193 kts 293°
2026-05-03 22:08 39.77816 -104.72426 8324 ft 187 kts 346°
2026-05-03 22:08 39.79067 -104.72056 7823 ft 194 kts 26°
2026-05-03 22:08 39.80232 -104.71046 7160 ft 208 kts 32°
2026-05-03 22:08 39.81465 -104.69995 6521 ft 212 kts 21°
2026-05-03 22:09 39.82798 -104.69533 6380 ft 227 kts